Waterville, ME

3:29 AM EDT on October 01, 2016 (GMT -0400)
Waterville Lafleur

Weather History for KWVL - November, 2011

Change the Weather History Date:

Friday, November 11, 2011

  Actual Average Record
Temperature  
Mean Temperature - -  
Max Temperature - 48 °F 66 °F (2002)
Min Temperature - 32 °F 17 °F (1973)
Moisture  
Dew Point -    
Average Humidity    
Maximum Humidity    
Minimum Humidity    
Precipitation  
Precipitation 0.13 in - - ()
Sea Level Pressure  
Sea Level Pressure 29.38 in    
Wind  
Wind Speed 9 mph (NW)    
Max Wind Speed 18 mph    
Max Gust Speed 26 mph    
Visibility 10 miles    
Events      
Averages and records for this station are not official NWS values.
T = Trace of Precipitation, MM = Missing Value Source: NWS Daily Summary

Daily Weather History Graph

Daily Weather History Graph

Search for Another Location

Airport or City:

Trip Planner

Search our weather history database for the weather conditions in past years. The results will help you decide how hot, cold, wet, or windy it might be!

Date:

Astronomy

Nov. 11, 2011 Rise Set
Actual Time 6:29 AM EST 4:15 PM EST
Civil Twilight 5:58 AM EST 4:46 PM EST
Nautical Twilight 5:23 AM EST 5:21 PM EST
Astronomical Twilight 4:48 AM EST 5:55 PM EST
Moon 4:38 PM EST (11/11) 7:18 AM EST (11/11)
Length of Visible Light 10h 48m
Length of Day
9h 46m
Full, 99% of the Moon is Illuminated
Nov 11
Full
Nov 18
Last Quarter
Nov 25
New
Dec 2
First Quarter
Dec 10
Full

Hourly Weather History & Observations

Time (EST) Temp. Dew Point Humidity Pressure Visibility Wind Dir Wind Speed Gust Speed Precip Events Conditions
12:15 AM - - N/A% 29.40 in 8.0 mi NNW 3.5 mph - N/A   Overcast
12:35 AM - - N/A% 29.39 in 2.0 mi North 5.8 mph - 0.01 in   Overcast
12:55 AM - - N/A% 29.39 in 3.0 mi NNW 6.9 mph - 0.01 in   Overcast
1:15 AM - - N/A% 29.41 in 4.0 mi North 18.4 mph 26.5 mph 0.01 in   Overcast
1:35 AM - - N/A% 29.39 in 10.0 mi NNW 17.3 mph 24.2 mph 0.02 in   Overcast
1:55 AM - - N/A% 29.40 in 10.0 mi NNW 11.5 mph 24.2 mph 0.02 in   Overcast
2:15 AM - - N/A% 29.41 in 10.0 mi NNW 15.0 mph 19.6 mph 0.02 in   Overcast
2:35 AM - - N/A% 29.41 in 10.0 mi NW 12.7 mph 16.1 mph 0.04 in   Overcast
2:55 AM - - N/A% 29.41 in 10.0 mi NNW 8.1 mph 16.1 mph 0.06 in   Overcast
3:35 AM - - N/A% 29.39 in 10.0 mi North 6.9 mph - 0.01 in   Overcast
3:55 AM - - N/A% 29.37 in 10.0 mi NNW 8.1 mph - 0.02 in   Overcast
4:15 AM - - N/A% 29.37 in 10.0 mi NNW 6.9 mph - N/A   Overcast
4:35 AM - - N/A% 29.36 in 10.0 mi North 5.8 mph - N/A   Overcast
5:15 AM - - N/A% 29.35 in 10.0 mi North 3.5 mph - N/A   Overcast
5:35 AM - - N/A% 29.35 in 10.0 mi NNW 9.2 mph - N/A   Overcast
5:55 AM - - N/A% 29.35 in 10.0 mi NNW 5.8 mph - N/A   Overcast
6:15 AM - - N/A% 29.35 in 10.0 mi NW 5.8 mph - N/A   Overcast
6:35 AM - - N/A% 29.35 in 10.0 mi North 5.8 mph - N/A   Overcast
6:55 AM - - N/A% 29.33 in 10.0 mi NNE 5.8 mph - N/A   Overcast
7:15 AM - - N/A% 29.31 in 10.0 mi NNW 8.1 mph - N/A   Mostly Cloudy
7:35 AM - - N/A% 29.30 in 10.0 mi NNW 6.9 mph - N/A   Clear
7:55 AM - - N/A% 29.30 in 10.0 mi NNW 8.1 mph - N/A   Clear
8:15 AM - - N/A% 29.32 in 10.0 mi NW 10.4 mph - N/A   Clear
8:35 AM - - N/A% 29.33 in 10.0 mi WNW 11.5 mph 17.3 mph N/A   Clear
8:55 AM - - N/A% 29.33 in 10.0 mi WNW 10.4 mph - N/A   Clear
9:15 AM - - N/A% 29.33 in 10.0 mi WNW 9.2 mph - N/A   Clear
9:35 AM - - N/A% 29.33 in 10.0 mi WNW 8.1 mph - N/A   Mostly Cloudy
9:55 AM - - N/A% 29.32 in 10.0 mi NW 9.2 mph 16.1 mph N/A   Overcast
10:15 AM - - N/A% 29.33 in 10.0 mi NW 8.1 mph - N/A   Overcast
10:35 AM - - N/A% 29.32 in 10.0 mi NW 9.2 mph - N/A   Overcast
10:55 AM - - N/A% 29.32 in 10.0 mi NW 9.2 mph - N/A   Overcast
11:16 AM - - N/A% 29.31 in 10.0 mi WNW 9.2 mph - N/A   Overcast
11:35 AM - - N/A% 29.32 in 10.0 mi WNW 8.1 mph - N/A   Mostly Cloudy
11:55 AM - - N/A% 29.32 in 10.0 mi WNW 5.8 mph - N/A   Overcast
12:15 PM - - N/A% 29.32 in 10.0 mi WNW 6.9 mph - N/A   Overcast
12:35 PM - - N/A% 29.32 in 10.0 mi NW 6.9 mph - 0.01 in   Overcast
12:55 PM - - N/A% 29.32 in 10.0 mi West 6.9 mph - 0.01 in   Overcast
1:35 PM - - N/A% 29.32 in 10.0 mi WNW 6.9 mph - 0.01 in   Overcast
1:55 PM - - N/A% 29.32 in 10.0 mi NW 12.7 mph 19.6 mph 0.01 in   Overcast
2:35 PM - - N/A% 29.34 in 10.0 mi WNW 6.9 mph - N/A   Overcast
2:55 PM - - N/A% 29.35 in 10.0 mi West 5.8 mph - N/A   Scattered Clouds
3:15 PM - - N/A% 29.35 in 10.0 mi West 6.9 mph - N/A   Partly Cloudy
3:35 PM - - N/A% 29.35 in 10.0 mi West 9.2 mph - N/A   Mostly Cloudy
4:15 PM - - N/A% 29.37 in 10.0 mi West 12.7 mph 19.6 mph N/A   Scattered Clouds
4:35 PM - - N/A% 29.37 in 10.0 mi West 13.8 mph 19.6 mph N/A   Clear
4:55 PM - - N/A% 29.39 in 10.0 mi West 11.5 mph 24.2 mph N/A   Clear
5:35 PM - - N/A% 29.41 in 10.0 mi WNW 10.4 mph 21.9 mph N/A   Clear
5:55 PM - - N/A% 29.42 in 10.0 mi West 13.8 mph 18.4 mph N/A   Clear
6:35 PM - - N/A% 29.45 in 10.0 mi West 8.1 mph - N/A   Clear
6:55 PM - - N/A% 29.45 in 10.0 mi West 10.4 mph 16.1 mph N/A   Clear
7:15 PM - - N/A% 29.46 in 10.0 mi WSW 10.4 mph 16.1 mph N/A   Clear
7:35 PM - - N/A% 29.48 in 10.0 mi WSW 11.5 mph 17.3 mph N/A   Scattered Clouds
7:55 PM - - N/A% 29.49 in 10.0 mi WSW 11.5 mph 17.3 mph N/A   Mostly Cloudy
8:15 PM - - N/A% 29.50 in 10.0 mi WSW 10.4 mph - N/A   Scattered Clouds
8:35 PM - - N/A% 29.51 in 10.0 mi West 11.5 mph - N/A   Clear
9:15 PM - - N/A% 29.53 in 10.0 mi WSW 11.5 mph 18.4 mph N/A   Mostly Cloudy
9:35 PM - - N/A% 29.54 in 10.0 mi West 11.5 mph 19.6 mph N/A   Overcast
9:55 PM - - N/A% 29.55 in 10.0 mi West 11.5 mph 23.0 mph N/A   Mostly Cloudy
10:15 PM - - N/A% 29.56 in 10.0 mi West 11.5 mph - N/A   Partly Cloudy
10:35 PM - - N/A% 29.58 in 10.0 mi West 12.7 mph 18.4 mph N/A   Partly Cloudy
10:55 PM - - N/A% 29.60 in 10.0 mi WNW 13.8 mph 21.9 mph N/A   Clear
11:15 PM - - N/A% 29.62 in 10.0 mi WNW 11.5 mph 20.7 mph N/A   Clear
11:35 PM - - N/A% 29.63 in 10.0 mi West 9.2 mph 19.6 mph N/A   Clear
11:55 PM - - N/A% 29.64 in 10.0 mi West 12.7 mph 18.4 mph N/A   Clear